Preview of NWS' New Version of Forecast
This preview is not operational and should not be used for support decisions.

Regional Weather Roundup (RWR)

Issued by National Weather Service (NWS)

                            
000
ASUS45 KABQ 180010
RWRNM 
NEW MEXICO REGIONAL WEATHER ROUNDUP
NATIONAL WEATHER SERVICE ALBUQUERQUE NM
500 PM MST SUN FEB 17 2019

NOTE: "FAIR" MEANS FEW OR NO CLOUDS BELOW 12,000 FEET AGL WITH NO
       SIGNIFICANT WEATHER OR OBSTRUCTIONS TO VISION.

      THIS PRODUCT IS RELEASED AS TWO VERSIONS.  ONE VERSION NEAR
      THE TOP OF THE HOUR CONTAINING PRELIMINARY DATA FROM ALBUQUERQUE
      AND OTHER STATIONS.  A FINAL VERSION WITH ADDITIONAL DATA IS 
      ISSUED ABOUT 10 MINUTES AFTER THE HOUR.
 
NMZ501-503-504-510>518-180100-
NORTHWEST PLATEAU/NORTHCENTRAL MOUNTAINS
  
CITY           SKY/WX    TMP DP  RH WIND       PRES   REMARKS
FARMINGTON     FLURRIES  31  26  82 E6        29.79F WCI  25          
6HR MIN TEMP:  29; 6HR MAX TEMP:  37; 6HR PCP:  0.01;                

LOS ALAMOS     MOCLDY    29  18  64 S6        29.81S WCI  22          
SANTA FE       FAIR      33  13  43 SW14      29.80S WCI  23          
6HR MIN TEMP:  31; 6HR MAX TEMP:  39; 6HR PCP: TRACE;                

TAOS           LGT SNOW  27  21  78 MISG      29.83R                  
ANGEL FIRE       N/A     22   6  50 W10       29.78R WCI  11          

$$
NMZ402-403-502-505>509-180100-
WESTCENTRAL MOUNTAINS/SOUTHWEST MOUNTAINS
  
CITY           SKY/WX    TMP DP  RH WIND       PRES   REMARKS
GALLUP         CLOUDY    31  18  58 SW17      29.80S WCI  19          
6HR MIN TEMP:  25; 6HR MAX TEMP:  32; 6HR PCP:  0.02;                

GRANTS         FAIR      32  16  51 NW6       29.82F WCI  27          
SILVER CITY    FAIR      44  10  25 W15G28    29.88F                  

$$
NMZ407-409-411-412-180100-
SOUTHERN DESERTS
  
CITY           SKY/WX    TMP DP  RH WIND       PRES   REMARKS
DEMING         FAIR      53   7  15 W21       29.87F                  
6HR MIN TEMP:  48; 6HR MAX TEMP:  54;                                

LAS CRUCES     FAIR      54  11  18 W22G29    29.87S                  
HOLLOMAN AFB   MOCLDY    52   1  12 SW17      29.88R                  
ALAMOGORDO     FAIR      52  -2  11 MISG      29.88R                  
T OR C         FAIR      48   8  19 W16       29.85R                  
6HR MIN TEMP:  45; 6HR MAX TEMP:  54;                                


$$
NMZ519>523-180100-
CENTRAL VALLEYS/CENTRAL HIGHLANDS
  
CITY           SKY/WX    TMP DP  RH WIND       PRES   REMARKS
ALBUQUERQUE    FAIR      40  13  33 S10       29.83S WCI  33          
6HR MIN TEMP:  34; 6HR MAX TEMP:  43; 6HR PCP: TRACE;                

DOUBLE EAGLE   MOCLDY    37  10  32 W17G25    29.83S WCI  28          
MORIARTY ARPT  MOCLDY    39   9  28 SW21      29.84S WCI  29          
6HR MIN TEMP:  38; 6HR MAX TEMP:  42;                                

CLINES CORNERS FAIR      33   4  29 W17       29.82S WCI  22          
6HR MIN TEMP:  31; 6HR MAX TEMP:  38; 6HR PCP: TRACE;                

BELEN          MOCLDY    40  11  29 SW7       29.84S                  
6HR MIN TEMP:  37; 6HR MAX TEMP:  47;                                

SOCORRO        FAIR      45  10  24 CALM      29.83S                  
6HR MIN TEMP:  40; 6HR MAX TEMP:  46;                                


$$
NMZ524>526-539-540-180100-
SOUTHCENTRAL MOUNTAINS
  
CITY           SKY/WX    TMP DP  RH WIND       PRES   REMARKS
RUIDOSO        NOT AVBL                                               

$$
NMZ527>531-180100-
NORTHEAST HIGHLANDS/NORTHEAST PLAINS
  
CITY           SKY/WX    TMP DP  RH WIND       PRES   REMARKS
LAS VEGAS      FAIR      32  11  41 W18       29.79R WCI  20          
6HR MIN TEMP:  32; 6HR MAX TEMP:  40;                                

RATON          CLOUDY    35   5  28 S14       29.78R WCI  26          
6HR MIN TEMP:  33; 6HR MAX TEMP:  41;                                

CLAYTON        FAIR      39   1  20 S9        29.83R WCI  33          
6HR MIN TEMP:  38; 6HR MAX TEMP:  43;                                


$$
NMZ532>537-180100-
EASTCENTRAL PLAINS
  
CITY           SKY/WX    TMP DP  RH WIND       PRES   REMARKS
SANTA ROSA     FAIR      46   5  19 SW16G24   29.81S                  
TUCUMCARI      CLOUDY    47  17  30 SW16      29.82R                  
6HR MIN TEMP:  45; 6HR MAX TEMP:  52;                                

CANNON AFB     FAIR      49  11  21 SW12      29.86R                  
6HR MIN TEMP:  44; 6HR MAX TEMP:  53;                                

CLOVIS AIRPORT MOCLDY    49  10  20 SW9       29.86R                  

$$
NMZ028-029-538-180100-
SOUTHEAST PLAINS
  
CITY           SKY/WX    TMP DP  RH WIND       PRES   REMARKS
ROSWELL        FAIR      57   3  11 W20G29    29.79R                  
6HR MIN TEMP:  49; 6HR MAX TEMP:  60;                                

ARTESIA        FAIR      57   3  11 W29G37    29.83R                  
CARLSBAD       FAIR      59  10  14 W22G30    29.83R                  
6HR MIN TEMP:  50; 6HR MAX TEMP:  62;                                

HOBBS          CLEAR     55  18  22 S9        29.86S                  


$$